Regional Weather Roundup
Issued by NWS

Home | Current Version | Previous Version | Graphics & Text | Print | Product List | Glossary On
Versions: 1 2 3 4 5 6 7 8 9 10 11 12 13 14 15 16 17 18 19 20 21 22 23 24 25 26 27 28 29 30 31 32 33 34 35 36 37 38 39 40 41 42 43 44 45 46 47 48 49 50
285
ASUS45 KBOI 201210
RWRID

IDAHO REGIONAL WEATHER ROUNDUP
NATIONAL WEATHER SERVICE BOISE ID
500 AM MST MON FEB 20 2017

NOTE: "FAIR" INDICATES FEW OR NO CLOUDS BELOW 12000 FEET
WITH NO SIGNIFICANT WEATHER AND/OR OBSTRUCTIONS TO VISIBILITY

IDZ012-014-201300-
SOUTHWEST IDAHO


CITY           SKY/WX    TMP DP  RH WIND       PRES   REMARKS
BOISE          MOCLDY    46  35  65 SE18      29.75S
CALDWELL       CLOUDY    43  36  76 SE18      29.74F
MOUNTAIN HOME  PTCLDY    38  38 100 SE13      29.80R WCI  30
$$

IDZ016-017-201300-
SOUTHCENTRAL IDAHO


CITY           SKY/WX    TMP DP  RH WIND       PRES   REMARKS
BURLEY         PTCLDY    42  33  70 S13       29.83F
JEROME           N/A    N/A N/A N/A MISG      29.83F
TWIN FALLS     CLOUDY    36  31  82 CALM      29.83R
$$

IDZ019>023-201300-
SOUTHEAST IDAHO


CITY           SKY/WX    TMP DP  RH WIND       PRES   REMARKS
IDAHO FALLS    CLOUDY    31  30  96 CALM      29.90S
POCATELLO      CLOUDY    37  30  75 W8        29.91R WCI  31
REXBURG        CLOUDY    32  29  88 E5        29.90S WCI  27
$$

IDZ006-010-011-018-031-032-201300-
CENTRAL IDAHO MOUNTAINS


CITY           SKY/WX    TMP DP  RH WIND       PRES   REMARKS
MCCALL         LGT SNOW  33  30  88 S9        29.70S FOG     WCI  25
HAILEY         LGT SNOW  30  30 100 CALM      29.87F
STANLEY          N/A     31  28  89 S13       29.75F WCI  21
SALMON         CLOUDY    30  28  93 CALM      29.77F
CHALLIS        CLOUDY    26  24  92 CALM      29.77F
$$

IDZ002-004-006-007-026-201300-
NORTHERN IDAHO


CITY           SKY/WX    TMP DP  RH WIND       PRES   REMARKS
LEWISTON       LGT RAIN  39  36  89 E8        29.70F WCI  33
LOWELL           N/A     34  32  92 CALM      29.79S
COEUR D`ALENE  CLOUDY    30  29  96 E3        29.67F
MULLAN PASS    LGT SNOW  24  24 100 VRB3      29.62F VSB 1
$$




USA.gov is the U.S. government's official web portal to all federal, state and local government web resources and services.